• In Czech Republic
  • List of Countries
  • For 7 days
  • Water Temperature
  • Satellite Maps
  • Weather Map
  • Weather Widgets
  • user-avatar
    Login

    Hourly Weather Bor

    Today, 19 August, Sunday

    Time Temperature Precipitation Wind Pressure Humidity
    00:00 +6°C° 0 mm 0 mps 747 mmHg 91%
    01:00 +6°C° 0 mm 0 mps 747 mmHg 91%
    02:00 +6°C° 0 mm 0 mps 747 mmHg 92%
    03:00 +6°C° 0 mm 0 mps 748 mmHg 92%
    04:00 +7°C° 0 mm 1 mps 748 mmHg 93%
    05:00 +8°C° 0 mm 1 mps 748 mmHg 89%
    06:00 +9°C° 0 mm 1 mps 748 mmHg 85%
    07:00 +10°C° 0 mm 1 mps 748 mmHg 81%
    08:00 +13°C° 0 mm 1 mps 747 mmHg 72%
    09:00 +15°C° 0 mm 1 mps 747 mmHg 63%
    10:00 +19°C° 0 mm 1 mps 747 mmHg 54%
    11:00 +20°C° 0 mm 1 mps 747 mmHg 51%
    12:00 +21°C° 0 mm 1 mps 747 mmHg 48%
    13:00 +23°C° 0 mm 1 mps 746 mmHg 45%
    14:00 +22°C° 0 mm 1 mps 746 mmHg 47%
    15:00 +22°C° 0 mm 1 mps 746 mmHg 48%
    16:00 +22°C° 0 mm 1 mps 745 mmHg 50%
    17:00 +21°C° 0 mm 1 mps 745 mmHg 58%
    18:00 +19°C° 0 mm 1 mps 745 mmHg 67%
    19:00 +18°C° 0 mm 1 mps 744 mmHg 75%
    20:00 +16°C° 0 mm 1 mps 744 mmHg 80%
    21:00 +14°C° 0 mm 1 mps 744 mmHg 85%
    22:00 +13°C° 0 mm 1 mps 744 mmHg 91%
    23:00 +13°C° 0 mm 1 mps 743 mmHg 91%

    Tomorrow, 20 August, Monday

    Time Temperature Precipitation Wind Pressure Humidity
    00:00 +13°C° 0 mm 1 mps 743 mmHg 91%
    01:00 +13°C° 0 mm 2 mps 743 mmHg 92%
    02:00 +13°C° 0 mm 2 mps 743 mmHg 91%
    03:00 +13°C° 0 mm 2 mps 743 mmHg 90%
    04:00 +13°C° 0 mm 2 mps 742 mmHg 89%
    05:00 +14°C° 0 mm 2 mps 742 mmHg 88%
    06:00 +14°C° 0 mm 2 mps 742 mmHg 87%
    07:00 +14°C° 0 mm 2 mps 742 mmHg 86%
    08:00 +16°C° 0 mm 3 mps 741 mmHg 79%
    09:00 +17°C° 0 mm 3 mps 741 mmHg 73%
    10:00 +19°C° 0 mm 3 mps 741 mmHg 67%
    11:00 +20°C° 0 mm 3 mps 741 mmHg 62%
    12:00 +21°C° 0 mm 4 mps 740 mmHg 58%
    13:00 +22°C° 0 mm 4 mps 740 mmHg 53%
    14:00 +21°C° 0.2 mm 4 mps 740 mmHg 61%
    15:00 +19°C° 0.2 mm 3 mps 739 mmHg 69%
    16:00 +18°C° 0.2 mm 3 mps 739 mmHg 78%
    17:00 +17°C° 0.5 mm 3 mps 739 mmHg 84%
    18:00 +17°C° 0.5 mm 2 mps 739 mmHg 90%
    19:00 +16°C° 0.5 mm 2 mps 738 mmHg 97%
    20:00 +15°C° 0.1 mm 2 mps 738 mmHg 97%
    21:00 +15°C° 0.1 mm 2 mps 738 mmHg 98%
    22:00 +15°C° 0.1 mm 1 mps 738 mmHg 98%
    23:00 +14°C° 0 mm 1 mps 738 mmHg 99%

    Day after tomorrow, 21 August, Tuesday

    Time Temperature Precipitation Wind Pressure Humidity
    00:00 +14°C° 0 mm 1 mps 737 mmHg 99%
    01:00 +13°C° 0 mm 1 mps 737 mmHg 99%
    02:00 +13°C° 0 mm 1 mps 737 mmHg 99%
    03:00 +13°C° 0 mm 1 mps 737 mmHg 99%
    04:00 +11°C° 0 mm 0 mps 737 mmHg 99%
    05:00 +12°C° 0 mm 0 mps 737 mmHg 98%
    06:00 +13°C° 0 mm 0 mps 737 mmHg 98%
    07:00 +13°C° 0 mm 0 mps 737 mmHg 97%
    08:00 +15°C° 0 mm 1 mps 737 mmHg 95%
    09:00 +16°C° 0 mm 1 mps 737 mmHg 94%
    10:00 +18°C° 0 mm 1 mps 737 mmHg 92%
    11:00 +19°C° 0.1 mm 1 mps 737 mmHg 85%
    12:00 +20°C° 0.1 mm 2 mps 737 mmHg 78%
    13:00 +21°C° 0.1 mm 2 mps 736 mmHg 72%
    14:00 +21°C° 0.1 mm 2 mps 736 mmHg 71%
    15:00 +23°C° 0.1 mm 2 mps 735 mmHg 71%
    16:00 +22°C° 0.1 mm 3 mps 735 mmHg 70%
    17:00 +21°C° 0.2 mm 2 mps 735 mmHg 77%
    18:00 +20°C° 0.2 mm 2 mps 734 mmHg 85%
    19:00 +19°C° 0.2 mm 2 mps 734 mmHg 92%
    20:00 +18°C° 0.1 mm 2 mps 733 mmHg 93%
    21:00 +17°C° 0.1 mm 2 mps 733 mmHg 95%
    22:00 +17°C° 0.1 mm 3 mps 733 mmHg 97%
    23:00 +17°C° 0 mm 3 mps 732 mmHg 97%

    22 August, Wednesday

    Time Temperature Precipitation Wind Pressure Humidity
    00:00 +16°C° 0 mm 3 mps 731 mmHg 97%
    01:00 +16°C° 0 mm 3 mps 731 mmHg 97%
    02:00 +16°C° 0.1 mm 3 mps 730 mmHg 97%
    03:00 +16°C° 0.1 mm 3 mps 730 mmHg 97%
    04:00 +15°C° 0.1 mm 4 mps 730 mmHg 98%
    05:00 +17°C° 0.6 mm 4 mps 730 mmHg 97%
    06:00 +17°C° 0.6 mm 4 mps 730 mmHg 97%
    07:00 +17°C° 0.6 mm 4 mps 729 mmHg 96%
    08:00 +15°C° 0.2 mm 4 mps 730 mmHg 93%
    09:00 +14°C° 0.2 mm 4 mps 730 mmHg 90%
    10:00 +13°C° 0.2 mm 4 mps 730 mmHg 87%
    11:00 +13°C° 0 mm 4 mps 731 mmHg 82%
    12:00 +13°C° 0 mm 4 mps 731 mmHg 77%
    13:00 +13°C° 0 mm 4 mps 732 mmHg 72%
    14:00 +13°C° 0 mm 4 mps 732 mmHg 70%
    15:00 +14°C° 0 mm 4 mps 732 mmHg 68%
    16:00 +14°C° 0 mm 4 mps 733 mmHg 66%
    17:00 +13°C° 0 mm 4 mps 733 mmHg 68%
    18:00 +13°C° 0 mm 3 mps 733 mmHg 71%
    19:00 +13°C° 0 mm 3 mps 734 mmHg 73%
    20:00 +11°C° 0 mm 3 mps 734 mmHg 77%
    21:00 +10°C° 0 mm 3 mps 734 mmHg 81%
    22:00 +9°C° 0 mm 3 mps 734 mmHg 85%
    23:00 +8°C° 0 mm 3 mps 735 mmHg 85%

    23 August, Thursday

    Time Temperature Precipitation Wind Pressure Humidity
    00:00 +8°C° 0 mm 3 mps 735 mmHg 85%
    01:00 +7°C° 0 mm 3 mps 735 mmHg 85%
    02:00 +7°C° 0 mm 4 mps 735 mmHg 83%
    03:00 +7°C° 0 mm 4 mps 736 mmHg 81%
    04:00 +7°C° 0 mm 4 mps 736 mmHg 78%
    05:00 +7°C° 0 mm 4 mps 736 mmHg 78%
    06:00 +7°C° 0 mm 5 mps 737 mmHg 78%
    07:00 +7°C° 0 mm 5 mps 737 mmHg 77%
    08:00 +7°C° 0 mm 5 mps 738 mmHg 77%
    09:00 +7°C° 0 mm 5 mps 738 mmHg 77%
    10:00 +8°C° 0 mm 5 mps 738 mmHg 76%
    11:00 +8°C° 0 mm 4 mps 739 mmHg 75%
    12:00 +8°C° 0 mm 4 mps 739 mmHg 73%
    13:00 +10°C° 0 mm 4 mps 739 mmHg 71%
    14:00 +11°C° 0 mm 4 mps 739 mmHg 67%
    15:00 +12°C° 0 mm 4 mps 740 mmHg 63%
    16:00 +13°C° 0 mm 4 mps 740 mmHg 59%
    17:00 +12°C° 0 mm 3 mps 740 mmHg 63%
    18:00 +12°C° 0 mm 3 mps 740 mmHg 67%
    19:00 +12°C° 0 mm 2 mps 740 mmHg 71%
    20:00 +10°C° 0 mm 2 mps 740 mmHg 75%
    21:00 +9°C° 0 mm 2 mps 740 mmHg 79%
    22:00 +8°C° 0 mm 2 mps 740 mmHg 83%
    23:00 +8°C° 0 mm 2 mps 740 mmHg 83%

    24 August, Friday

    Time Temperature Precipitation Wind Pressure Humidity
    00:00 +9°C° 0 mm 2 mps 740 mmHg 83%
    01:00 +9°C° 0 mm 2 mps 740 mmHg 82%
    02:00 +9°C° 0.2 mm 2 mps 740 mmHg 87%
    03:00 +9°C° 0.2 mm 2 mps 739 mmHg 91%
    04:00 +9°C° 0.2 mm 2 mps 739 mmHg 95%
    05:00 +9°C° 0.1 mm 2 mps 739 mmHg 95%
    06:00 +10°C° 0.1 mm 1 mps 739 mmHg 96%
    07:00 +10°C° 0.1 mm 1 mps 739 mmHg 96%
    08:00 +11°C° 0.2 mm 1 mps 739 mmHg 96%
    09:00 +11°C° 0.2 mm 1 mps 739 mmHg 95%
    10:00 +12°C° 0.2 mm 1 mps 739 mmHg 95%
    11:00 +13°C° 0.2 mm 1 mps 740 mmHg 94%
    12:00 +14°C° 0.2 mm 1 mps 740 mmHg 92%
    13:00 +15°C° 0.2 mm 1 mps 740 mmHg 91%
    14:00 +15°C° 0.2 mm 1 mps 740 mmHg 88%
    15:00 +16°C° 0.2 mm 2 mps 741 mmHg 86%
    16:00 +16°C° 0.2 mm 2 mps 741 mmHg 83%
    17:00 +16°C° 0.1 mm 2 mps 741 mmHg 85%
    18:00 +15°C° 0.1 mm 2 mps 741 mmHg 88%
    19:00 +14°C° 0.1 mm 1 mps 742 mmHg 90%
    20:00 +13°C° 0 mm 1 mps 742 mmHg 92%
    21:00 +12°C° 0 mm 1 mps 742 mmHg 95%
    22:00 +11°C° 0 mm 1 mps 743 mmHg 97%
    23:00 +11°C° 0 mm 1 mps 743 mmHg 97%
    Show more